Back to catalog

NOAA 16 DEB

AliveSSO
NORAD 41248·DEBRIS·🇺🇸 United States

Launched Sep 21, 2000 from Vandenberg Space Force Base

Loading…

Next Passes (next 24 hours)

TLE

FreshSource: Space-Track

Epoch: Sep 13, 2026, 11:41 UTC

1 41248U 00055EY  26256.48736957  .00003491  00000-0  16400-2 0  9999
2 41248  98.8571 268.0236 0068606 175.6941 184.4839 14.19453537546122

Track NOAA 16 DEB in real time with AllMySat

Download on the App Store